This is the latest recevied weather packets stored in our database for station/object N7TUG-8. If no packets are shown the sender has not sent any weather packets the latest 10 day(s).
| Time | Temp. | Humidity | Pressure | Rain* | Wind** | Luminosity | Snow |
|---|---|---|---|---|---|---|---|
| 1777606256 | 18.33° C | 66% | 1015.1 hPa | 0 mm | 1.34 m/s, 290° | - | - |
| 1777605471 | 18.33° C | 67% | 1015.1 hPa | 0 mm | 2.24 m/s, 293° | - | - |
| 1777605437 | 18.33° C | 67% | 1015.1 hPa | 0 mm | 2.24 m/s, 293° | - | - |
| 1777604692 | 18.33° C | 68% | 1015.1 hPa | 0 mm | 2.68 m/s, 307° | - | - |
| 1777604546 | 18.33° C | 68% | 1015.1 hPa | 0 mm | 2.68 m/s, 307° | - | - |
| 1777603756 | 18.89° C | 67% | 1015 hPa | 0 mm | 2.68 m/s, 309° | - | - |
| 1777602971 | 18.89° C | 67% | 1015 hPa | 0 mm | 3.13 m/s, 316° | - | - |
| 1777602036 | 19.44° C | 66% | 1015.1 hPa | 0 mm | 2.68 m/s, 309° | - | - |
| 1777601378 | 19.44° C | 66% | 1015.1 hPa | 0 mm | 3.58 m/s, 302° | - | - |
| 1777601136 | 19.44° C | 66% | 1015.1 hPa | 0 mm | 3.58 m/s, 302° | - | - |
| 1777600181 | 19.44° C | 65% | 1015.3 hPa | 0 mm | 2.68 m/s, 307° | - | - |
| 1777599643 | 19.44° C | 65% | 1015.3 hPa | 0 mm | 2.68 m/s, 305° | - | - |
| 1777599291 | 19.44° C | 66% | 1015.4 hPa | 0 mm | 2.68 m/s, 315° | - | - |
| 1777598461 | 19.44° C | 66% | 1015.4 hPa | 0 mm | 2.68 m/s, 317° | - | - |
| 1777597532 | 18.89° C | 66% | 1015.5 hPa | 0 mm | 3.58 m/s, 314° | - | - |
| 1777597252 | 19.44° C | 66% | 1015.7 hPa | 0 mm | 3.58 m/s, 318° | - | - |
| 1777596572 | 20° C | 65% | 1015.8 hPa | 0 mm | 3.13 m/s, 303° | - | - |
| 1777595713 | 19.44° C | 66% | 1015.9 hPa | 0 mm | 2.68 m/s, 324° | - | - |
| 1777595620 | 19.44° C | 66% | 1015.9 hPa | 0 mm | 2.68 m/s, 324° | - | - |
| 1777594893 | 20° C | 65% | 1015.9 hPa | 0 mm | 2.68 m/s, 323° | - | - |
| 1777594696 | 20° C | 65% | 1016 hPa | 0 mm | 2.68 m/s, 341° | - | - |
| 1777594113 | 20.56° C | 64% | 1016 hPa | 0 mm | 2.24 m/s, 334° | - | - |
| 1777593841 | 20.56° C | 63% | 1016.1 hPa | 0 mm | 2.24 m/s, 325° | - | - |
| 1777593032 | 20.56° C | 63% | 1016.1 hPa | 0 mm | 2.68 m/s, 340° | - | - |
| 1777592252 | 20.56° C | 63% | 1016.2 hPa | 0 mm | 2.24 m/s, 340° | - | - |
* Rain latest hour (hover to see other rain measurements)
** Current wind speed in m/s (hover to see current wind gust speed)